EW3345 Weather Reports


Display with metric or nautical units.
time (UTC)temp
F
wind
direction
speed
MPH
gust
MPH
rain 1hr
in
rain 24hr
in
rain mn
in
humidity
%
barometer
mb
20260508135216 59 113 2.0 4.0 0.00 0.00 0.00 27 1025.4
20260508134216 59 0 2.0 3.0 0.00 0.00 0.00 30 1025.4
20260508133215 59 90 3.0 8.0 0.00 0.00 0.00 30 1025.3
20260508132216 58 0 2.0 5.0 0.00 0.00 0.00 29 1025.3
20260508131215 59 45 3.0 9.0 0.00 0.00 0.00 32 1025.3
20260508130216 59 68 3.0 6.0 0.00 0.00 0.00 32 1025.4
20260508125216 60 68 3.0 5.0 0.00 0.00 0.00 30 1025.3
20260508124235 59 293 2.0 4.0 0.00 0.00 0.00 31 1025.3
20260508123235 59 113 3.0 7.0 0.00 0.00 0.00 30 1025.4
20260508122216 59 90 2.0 6.0 0.00 0.00 0.00 31 1025.3
20260508121216 59 113 4.0 8.0 0.00 0.00 0.00 32 1025.2
20260508120215 60 0 5.0 11.0 0.00 0.00 0.00 30 1025.3
20260508115217 59 45 2.0 4.0 0.00 0.00 0.00 30 1025.3
20260508114218 59 293 2.0 5.0 0.00 0.00 0.00 35 1025.2
20260508113217 59 113 2.0 4.0 0.00 0.00 0.00 33 1025.2
20260508112217 59 113 5.0 10.0 0.00 0.00 0.00 35 1025.2
20260508111217 59 0 1.0 3.0 0.00 0.00 0.00 37 1025.1
20260508110217 59 338 3.0 8.0 0.00 0.00 0.00 33 1025.1
20260508105217 58 270 4.0 7.0 0.00 0.00 0.00 40 1025.1
20260508104237 58 338 6.0 10.0 0.00 0.00 0.00 36 1025.1
20260508103217 58 315 4.0 7.0 0.00 0.00 0.00 39 1025.1
20260508102237 58 315 6.0 11.0 0.00 0.00 0.00 36 1025.0
20260508101217 58 90 3.0 7.0 0.00 0.00 0.00 35 1025.1
20260508100217 58 113 2.0 4.0 0.00 0.00 0.00 42 1025.1
20260508095217 58 90 4.0 11.0 0.00 0.00 0.00 45 1025.0
20260508094217 57 270 1.0 3.0 0.00 0.00 0.00 44 1025.0
20260508093217 57 203 1.0 5.0 0.00 0.00 0.00 46 1025.0
20260508092217 57 338 5.0 9.0 0.00 0.00 0.00 42 1025.1
20260508091337 58 315 3.0 11.0 0.00 0.00 0.00 42 1025.1
20260508090217 58 68 4.0 10.0 0.00 0.00 0.00 43 1025.1
20260508085217 57 45 4.0 9.0 0.00 0.00 0.00 42 1025.0
20260508084217 57 338 2.0 4.0 0.00 0.00 0.00 45 1025.1
20260508083217 57 315 1.0 3.0 0.00 0.00 0.00 41 1025.1
20260508082217 57 113 3.0 5.0 0.00 0.00 0.00 45 1024.9
20260508081217 57 113 2.0 3.0 0.00 0.00 0.00 44 1025.0
20260508080217 56 90 2.0 3.0 0.00 0.00 0.00 43 1025.0
20260508075217 56 293 2.0 4.0 0.00 0.00 0.00 45 1024.9
20260508074217 56 338 4.0 7.0 0.00 0.00 0.00 46 1024.9
20260508073217 55 293 2.0 4.0 0.00 0.00 0.00 48 1024.8
20260508072217 54 90 1.0 2.0 0.00 0.00 0.00 51 1024.8
20260508071217 54 90 2.0 4.0 0.00 0.00 0.00 51 1024.6
20260508070217 53 68 3.0 6.0 0.00 0.00 0.00 53 1024.6
20260508065217 51 0.0 1.0 0.00 0.00 0.00 57 1024.7
20260508064217 51 0 2.0 4.0 0.00 0.00 0.00 57 1024.7
20260508063216 50 68 2.0 4.0 0.00 0.00 0.00 57 1024.6
20260508062237 49 0 1.0 2.0 0.00 0.00 0.00 60 1024.5
20260508061217 48 293 1.0 3.0 0.00 0.00 0.00 59 1024.2
20260508060216 48 180 1.0 2.0 0.00 0.00 0.00 60 1024.3
20260508055217 47 0 1.0 2.0 0.00 0.00 0.00 63 1024.0
20260508054217 46 23 2.0 4.0 0.00 0.00 0.00 65 1023.9
20260508053217 45 90 1.0 2.0 0.00 0.00 0.00 69 1023.8
20260508052217 43 0.0 1.0 0.00 0.00 0.00 72 1023.7
20260508051216 41 0.0 1.0 0.00 0.00 0.00 75 1023.6
20260508050216 40 293 2.0 3.0 0.00 0.00 0.00 78 1023.5
20260508045216 39 293 2.0 3.0 0.00 0.00 0.00 81 1023.5
20260508044216 37 293 2.0 2.0 0.00 0.00 0.00 85 1023.2
20260508043216 36 270 1.0 2.0 0.00 0.00 0.00 91 1023.0
20260508042217 35 0.0 0.0 0.00 0.00 0.00 92 1022.9
20260508041237 33 0.0 0.0 0.00 0.00 0.00 92 1022.8
20260508040236 33 0.0 0.0 0.00 0.00 0.00 92 1022.8
20260508035216 32 0.0 0.0 0.00 0.00 0.00 92 1022.6
20260508034216 32 0.0 0.0 0.00 0.00 0.00 92 1022.5
20260508033236 31 0.0 0.0 0.00 0.00 0.00 92 1022.4
20260508032216 31 0.0 0.0 0.00 0.00 0.00 92 1022.4
20260508031216 30 0.0 0.0 0.00 0.00 0.00 92 1022.3
20260508030216 30 0.0 0.0 0.00 0.00 0.00 92 1022.2
20260508025216 30 0.0 0.0 0.00 0.00 0.00 92 1022.1
20260508024236 30 0.0 0.0 0.00 0.00 0.00 91 1022.1
20260508023216 30 0.0 0.0 0.00 0.00 0.00 91 1021.8
20260508022216 31 0.0 0.0 0.00 0.00 0.00 92 1021.7
20260508021216 30 0.0 0.0 0.00 0.00 0.00 92 1021.5
20260508020216 30 0.0 0.0 0.00 0.00 0.00 91 1021.5
20260508015216 30 0.0 0.0 0.00 0.00 0.00 91 1021.4
20260508014236 30 0.0 0.0 0.00 0.00 0.00 91 1021.3
20260508013216 31 0.0 0.0 0.00 0.00 0.00 92 1021.2
20260508012216 30 0.0 0.0 0.00 0.00 0.00 91 1021.2
20260508011216 31 0.0 0.0 0.00 0.00 0.00 91 1021.1
20260508010216 30 0.0 0.0 0.00 0.00 0.00 91 1020.9
20260508005217 30 0.0 0.0 0.00 0.00 0.00 90 1020.8
20260508004216 31 0.0 0.0 0.00 0.00 0.00 90 1020.7
20260508003216 31 0.0 0.0 0.00 0.00 0.00 90 1020.6
20260508002216 32 0.0 0.0 0.00 0.00 0.00 90 1020.7
20260508001216 33 0.0 0.0 0.00 0.00 0.00 90 1020.6
20260508000216 33 0.0 0.0 0.00 0.00 0.00 90 1020.5
20260507235216 34 315 1.0 1.0 0.00 0.00 0.00 90 1020.4
20260507234216 34 315 1.0 2.0 0.00 0.00 0.00 91 1020.2
20260507233216 32 0 1.0 2.0 0.00 0.00 0.00 90 1020.3
20260507232216 33 0.0 0.0 0.00 0.00 0.00 89 1020.1
20260507231216 33 0.0 0.0 0.00 0.00 0.00 90 1020.0
20260507230216 33 0.0 1.0 0.00 0.00 0.00 90 1020.1
20260507225216 32 113 2.0 3.0 0.00 0.00 0.00 89 1020.0
20260507224236 33 225 1.0 2.0 0.00 0.00 0.00 87 1019.9
20260507223216 34 225 1.0 2.0 0.00 0.00 0.00 87 1019.8
20260507222216 35 0.0 0.0 0.00 0.00 0.00 85 1019.7
20260507221215 37 0.0 1.0 0.00 0.00 0.00 88 1019.7
20260507220216 36 315 2.0 2.0 0.00 0.00 0.00 88 1019.5
20260507215216 36 338 2.0 2.0 0.00 0.00 0.00 87 1019.5
20260507214215 36 338 1.0 2.0 0.00 0.00 0.00 86 1019.4
20260507213216 37 23 1.0 2.0 0.00 0.00 0.00 85 1019.2
20260507212215 37 23 1.0 1.0 0.00 0.00 0.00 86 1018.9
20260507211216 36 0.0 0.0 0.00 0.00 0.00 85 1018.8
20260507210216 37 0.0 0.0 0.00 0.00 0.00 84 1018.6
20260507205216 38 0.0 0.0 0.00 0.00 0.00 83 1018.5
20260507204236 38 0.0 0.0 0.00 0.00 0.00 82 1018.4
20260507203216 39 0.0 0.0 0.00 0.00 0.00 81 1018.4
20260507202236 39 68 1.0 1.0 0.00 0.00 0.00 82 1018.3
20260507201216 39 0.0 0.0 0.00 0.00 0.00 81 1018.1
20260507200216 40 0.0 0.0 0.00 0.00 0.00 80 1017.9
20260507195216 40 0.0 0.0 0.00 0.00 0.00 79 1017.8
20260507194216 41 0.0 0.0 0.00 0.00 0.00 78 1017.7
20260507193216 41 0.0 0.0 0.00 0.00 0.00 77 1017.6
20260507192216 41 0.0 0.0 0.00 0.00 0.00 76 1017.6
20260507191216 42 0.0 1.0 0.00 0.00 0.00 75 1017.5
20260507190216 43 23 1.0 2.0 0.00 0.00 0.00 74 1017.4
20260507185236 43 0.0 0.0 0.00 0.00 0.00 74 1017.4
20260507184236 44 0.0 0.0 0.00 0.00 0.00 73 1017.3
20260507183236 45 0.0 1.0 0.00 0.00 0.00 71 1017.3
20260507182256 46 0.0 0.0 0.00 0.00 0.00 69 1017.2
20260507181216 47 0.0 0.0 0.00 0.00 0.00 68 1017.2
20260507180216 48 23 1.0 1.0 0.00 0.00 0.00 67 1017.1
20260507175216 48 0.0 1.0 0.00 0.00 0.00 67 1016.9
20260507174216 48 0.0 0.0 0.00 0.00 0.00 66 1016.7
20260507173216 48 0.0 1.0 0.00 0.00 0.00 66 1016.6
20260507172216 48 113 1.0 3.0 0.00 0.00 0.00 67 1016.3
20260507171216 48 113 5.0 7.0 0.00 0.00 0.00 65 1016.1
20260507170216 50 113 2.0 4.0 0.00 0.00 0.00 62 1016.2
20260507165215 50 68 1.0 2.0 0.00 0.00 0.00 62 1016.4
20260507164216 50 90 2.0 3.0 0.00 0.00 0.00 62 1016.2
20260507163216 51 45 2.0 4.0 0.00 0.00 0.00 61 1016.2
20260507162215 51 113 3.0 6.0 0.00 0.00 0.00 61 1016.1
20260507161216 51 113 3.0 8.0 0.00 0.00 0.00 62 1015.8
20260507160216 52 68 2.0 3.0 0.00 0.00 0.00 61 1015.8
20260507155215 52 113 2.0 4.0 0.00 0.00 0.00 61 1015.7
20260507154215 52 68 3.0 6.0 0.00 0.00 0.00 61 1015.7
20260507153215 52 158 3.0 9.0 0.00 0.00 0.00 62 1015.8
20260507152215 51 23 4.0 8.0 0.00 0.00 0.00 63 1015.7
20260507151216 51 113 8.0 14.0 0.00 0.00 0.00 63 1015.7
20260507150215 52 0 1.0 4.0 0.00 0.00 0.00 63 1015.7
20260507145215 51 113 3.0 7.0 0.00 0.00 0.00 65 1015.5
20260507144235 52 113 3.0 7.0 0.00 0.00 0.00 63 1015.5
20260507143218 52 23 2.0 3.0 0.00 0.00 0.00 60 1015.6
20260507142217 52 23 1.0 3.0 0.00 0.00 0.00 60 1015.6
20260507141217 51 23 2.0 8.0 0.00 0.00 0.00 65 1015.5
20260507140217 50 90 2.0 7.0 0.00 0.00 0.00 67 1015.5